Flag for Israel Weather past 2 weeks in Karmiel, Israel

Now
82 °F

Clear.


Feels Like: 91 °F
Forecast: 75 / 99 °F
Wind: 5 mph from Northeast

Location: Dov Airport

Current Time: Aug 2, 2015 at 1:42:55 AM

Latest Report: Aug 1, 2015 at 10:50 PM


Visibility: 10 mi

Pressure: 29.74 "Hg

Humidity: 84%

Dew point: 77 °F

Location of KarmielLocation

Historic Weather in Karmiel — Graph

°F

Karmiel temperature yesterday

Maximum temperature yesterday: 86 °F (at 8:50 AM)
Minimum temperature yesterday: 79 °F (at 6:50 AM)
Average temperature yesterday: 84 °F

Past Weeks' High & Low Weather Summary

 TemperatureHumidityPressure
High88 °F (Jul 23, 2:50 PM)89% (Jul 18, 6:50 AM)29.83 "Hg (Jul 18, 6:50 AM)
Low73 °F (Jul 30, 5:50 AM)52% (Jul 23, 2:50 PM)29.65 "Hg (Jul 20, 5:50 AM)
Average82 °F73%29.71 "Hg
* Reported Jul 18 6:50 AM — Aug 1 10:50 PM, Karmiel, Weather by CustomWeather, © 2015

Note: Actual official high and low records may vary slightly from our data, if they occured in-between our weather recording intervals... More about our weather records

Advertising

Karmiel weather history for previous 24 hours

 ConditionsComfort  
Time TempWeatherWind HumidityBarometerVisibility
10:50 PM
Sat, Aug 1
82 °FClear.5 mph84%29.74 "Hg10 mi
9:50 PM82 °FClear.8 mph84%29.74 "Hg10 mi
8:50 PM82 °FClear.8 mph84%29.74 "Hg10 mi
7:50 PM84 °FSunny.8 mph79%29.71 "Hg10 mi
6:50 PM84 °FSunny.10 mph79%29.71 "Hg10 mi
5:50 PM86 °FSunny.13 mph75%29.71 "Hg10 mi
4:50 PM86 °FSunny.9 mph75%29.74 "Hg10 mi
3:50 PM86 °FSunny.10 mph75%29.74 "Hg10 mi
2:50 PM86 °FSunny.10 mph70%29.74 "Hg10 mi
1:50 PM86 °FSunny.10 mph70%29.74 "Hg10 mi
12:50 PM86 °FSunny.9 mph70%29.77 "Hg10 mi
11:50 AM86 °FPassing clouds.8 mph70%29.77 "HgN/A
10:50 AM84 °FSunny.8 mph74%29.77 "Hg10 mi
9:50 AM84 °FSunny.7 mph70%29.74 "Hg10 mi
8:50 AM86 °FSunny.2 mph66%29.74 "Hg10 mi
7:50 AM82 °FPassing clouds.6 mph74%29.71 "HgN/A
6:50 AM79 °FPassing clouds.3 mph84%29.71 "Hg6 mi
Weather by CustomWeather, © 2015

See weather overviewHow to use our weather pages